{"data":{"norad_id":60067,"intl_designator":"2024-113J","name":"STARLINK-11153 [DTC]","alt_names":[],"object_type":"PAYLOAD","status":"ACTIVE","operator":null,"country":"US","launch_date":"2024-06-19","launch_site_code":"AFWTR","launch_vehicle":null,"mission":null,"orbit_class":"UNKNOWN","rcs_meters":null,"size_class":null,"mass_kg":null,"dimensions":null,"purposes":["comms"],"wikipedia_slug":null,"has_3d_model":false,"image_url":null,"decayed_at":null,"tle_current":{"epoch":"2026-05-25T01:56:06.546048Z","epoch_age_seconds":74989,"freshness":"FRESH","line1":"1 60067U 24113J   26145.08063132 -.00004031  00000+0 -28407-4 0  9995","line2":"2 60067  53.1597 175.0428 0001007  67.2460 292.8664 15.69732311111559","mean_motion":15.69732311,"eccentricity":0.0001007,"inclination_deg":53.1597,"raan_deg":175.0428,"arg_perigee_deg":67.246,"mean_anomaly_deg":292.8664,"bstar":-2.8407e-5,"rev_number":11155,"period_min":91.735386340022,"perigee_km":358.98440918369,"apogee_km":360.34140208469,"semimajor_km":6737.7999056342,"source":"CELESTRAK","updated_at":"2026-05-25T13:38:19.158311Z"}}}